| time (UTC) | temp F | wind direction | speed MPH | gust MPH | rain 1hr in | rain 24hr in | rain mn in | humidity % | barometer mb |
| 20260503204536 | 77 | 3 | 5.0 | 15.0 | 0.00 | 0.00 | 0.00 | 31 | 1017.8 |
| 20260503203034 | 76 | 340 | 7.0 | 15.0 | 0.00 | 0.00 | 0.00 | 32 | 1017.9 |
| 20260503201643 | 77 | 344 | 7.0 | 14.0 | 0.00 | 0.00 | 0.00 | 31 | 1018.1 |
| 20260503200036 | 76 | 349 | 6.0 | 16.0 | 0.00 | 0.00 | 0.00 | 32 | 1018.3 |
| 20260503194534 | 76 | 357 | 5.0 | 15.0 | 0.00 | 0.00 | 0.00 | 32 | 1018.4 |
| 20260503193036 | 76 | 346 | 6.0 | 13.0 | 0.00 | 0.00 | 0.00 | 32 | 1018.5 |
| 20260503191535 | 76 | 341 | 6.0 | 13.0 | 0.00 | 0.00 | 0.00 | 31 | 1018.7 |
| 20260503184535 | 75 | 344 | 7.0 | 16.0 | 0.00 | 0.00 | 0.00 | 33 | 1018.8 |
| 20260503183034 | 74 | 346 | 8.0 | 15.0 | 0.00 | 0.01 | 0.00 | 34 | 1018.9 |
| 20260503181534 | 74 | 336 | 6.0 | 13.0 | 0.00 | 0.01 | 0.00 | 40 | 1019.0 |
| 20260503180036 | 74 | 344 | 6.0 | 12.0 | 0.00 | 0.01 | 0.00 | 41 | 1019.0 |
| 20260503174535 | 73 | 298 | 3.0 | 8.0 | 0.00 | 0.01 | 0.00 | 44 | 1019.2 |
| 20260503173146 | 72 | 267 | 3.0 | 7.0 | 0.00 | 0.01 | 0.00 | 45 | 1019.3 |
| 20260503160110 | 68 | 285 | 2.0 | 5.0 | 0.00 | 0.01 | 0.00 | 45 | 1019.4 |
| 20260503081534 | 56 | 113 | 6.0 | 9.0 | 0.00 | 0.01 | 0.00 | 58 | 1019.5 |
| 20260503054534 | 58 | 134 | 3.0 | 5.0 | 0.00 | 0.01 | 0.01 | 61 | 1019.3 |
| 20260503053035 | 61 | 152 | 4.0 | 6.0 | 0.00 | 0.01 | 0.01 | 54 | 1019.2 |
| 20260503051535 | 61 | 137 | 4.0 | 6.0 | 0.00 | 0.01 | 0.01 | 54 | 1019.3 |
| 20260503050035 | 61 | 126 | 2.0 | 5.0 | 0.00 | 0.01 | 0.01 | 55 | 1019.3 |
| 20260503044535 | 61 | 151 | 1.0 | 6.0 | 0.00 | 0.01 | 0.01 | 55 | 1019.4 |
| 20260503043037 | 61 | 130 | 1.0 | 3.0 | 0.00 | 0.01 | 0.01 | 55 | 1019.3 |
| 20260503033035 | 62 | 140 | 3.0 | 4.0 | 0.00 | 0.01 | 0.01 | 56 | 1018.8 |
| 20260503031532 | 64 | 135 | 3.0 | 4.0 | 0.00 | 0.01 | 0.01 | 55 | 1018.6 |
| 20260503030036 | 65 | 114 | 3.0 | 5.0 | 0.00 | 0.01 | 0.01 | 52 | 1018.3 |
| 20260503024535 | 66 | 112 | 4.0 | 6.0 | 0.00 | 0.01 | 0.01 | 49 | 1018.1 |
| 20260503023033 | 66 | 134 | 3.0 | 5.0 | 0.00 | 0.01 | 0.01 | 50 | 1018.0 |
| 20260503021534 | 66 | 149 | 3.0 | 5.0 | 0.00 | 0.01 | 0.01 | 52 | 1018.0 |
| 20260503020039 | 68 | 160 | 3.0 | 4.0 | 0.00 | 0.01 | 0.01 | 49 | 1017.9 |
| 20260503014531 | 70 | 191 | 2.0 | 4.0 | 0.00 | 0.01 | 0.01 | 42 | 1017.9 |
| 20260503013037 | 71 | 101 | 1.0 | 4.0 | 0.00 | 0.01 | 0.01 | 39 | 1017.9 |
| 20260503011534 | 71 | 55 | 2.0 | 6.0 | 0.00 | 0.01 | 0.01 | 37 | 1017.9 |
| 20260503004534 | 73 | 62 | 3.0 | 7.0 | 0.00 | 0.01 | 0.01 | 35 | 1017.9 |
| 20260503003035 | 73 | 57 | 3.0 | 9.0 | 0.00 | 0.01 | 0.01 | 34 | 1017.8 |
| 20260502234607 | 73 | 26 | 3.0 | 10.0 | 0.00 | 0.01 | 0.01 | 34 | 1018.0 |
| 20260502233142 | 73 | 55 | 4.0 | 12.0 | 0.00 | 0.01 | 0.01 | 34 | 1018.1 |
| 20260502231535 | 73 | 10 | 4.0 | 10.0 | 0.00 | 0.01 | 0.01 | 34 | 1018.2 |
| 20260502224537 | 73 | 36 | 4.0 | 13.0 | 0.00 | 0.01 | 0.01 | 35 | 1018.5 |
| 20260502221545 | 74 | 360 | 5.0 | 15.0 | 0.00 | 0.01 | 0.01 | 34 | 1018.8 |
| 20260502220040 | 74 | 19 | 5.0 | 14.0 | 0.00 | 0.01 | 0.01 | 34 | 1018.8 |
| 20260502213034 | 72 | 10 | 5.0 | 13.0 | 0.00 | 0.01 | 0.01 | 37 | 1019.1 |
| 20260502211536 | 72 | 355 | 5.0 | 11.0 | 0.00 | 0.01 | 0.01 | 38 | 1019.2 |
| 20260502210035 | 72 | 356 | 5.0 | 12.0 | 0.00 | 0.01 | 0.01 | 39 | 1019.3 |